Spokane Felts, WA
on Wednesday, February 13, 2013

Wednesday
Previous Day Next Day
Daily Summary
 ActualAverageRecord
Temperature
Mean Temperature °F 34°F  
Max Temperature 48°F 42°F 50°F (2011)
Min Temperature 27°F 26°F 19°F (2004)
Degree Days
Heating Degree Days 27 31  
Month to date heating degree days 379 412  
Since 1 July heating degree days 3680 4124  
Cooling Degree Days 0 0  
Month to date cooling degree days 0 0  
Year to date cooling degree days 0 0  
Moisture
Dew Point 29°F   
Average Humidity 65    
Maximum Humidity 85    
Minimum Humidity 45    
Precipitation
Precipitation 0.00 in 0.05 in 0.12 in (2006)
Month to date precipitation 0.08 0.76  
Year to date precipitation 1.71 2.71  
Wind
Wind Speed 5 mph   
Max Wind Speed 14 mph   
Max Gust Speed 18 mph   
Visibility 10 miles   
Events     

Key: T is trace of precipitation, MM is missing value
Source: NWS Daily Summary
Time(PST)TemperatureDew PointHumidity Pressure Visibility Wind DirectionWind SpeedGust SpeedPrecipitationEvents Conditions
12:53 AM 41.0°F 33.1°F 73% 30.18 in 10.0 miles SW 6.9 mph - N/A   Overcast
1:45 AM 39.2°F 33.8°F 81% 30.16 in 10.0 miles SW 6.9 mph - N/A   Overcast
1:53 AM 39.9°F 33.1°F 77% 30.19 in 10.0 miles SW 8.1 mph - N/A   Overcast
2:53 AM 39.9°F 33.1°F 77% 30.16 in 10.0 miles WSW 11.5 mph - N/A   Mostly Cloudy
3:53 AM 39.0°F 33.1°F 79% 30.16 in 10.0 miles WSW 9.2 mph 17.3 mph N/A   Clear
4:53 AM 39.0°F 33.1°F 79% 30.16 in 10.0 miles WSW 5.8 mph - N/A   Clear
5:53 AM 39.0°F 32.0°F 76% 30.18 in 10.0 miles West 4.6 mph - N/A   Clear
6:53 AM 37.9°F 30.9°F 76% 30.19 in 10.0 miles WNW 4.6 mph - N/A   Scattered Clouds
7:53 AM 36.0°F 30.9°F 82% 30.22 in 10.0 miles Calm Calm - N/A   Partly Cloudy
8:53 AM 41.0°F 32.0°F 70% 30.22 in 10.0 miles ESE 3.5 mph - N/A   Clear
9:53 AM 44.1°F 32.0°F 63% 30.24 in 10.0 miles South 4.6 mph - N/A   Partly Cloudy
10:53 AM 45.0°F 30.9°F 58% 30.23 in 10.0 miles West 5.8 mph - N/A   Clear
11:53 AM 46.0°F 28.9°F 51% 30.23 in 10.0 miles West 8.1 mph - N/A   Clear
12:53 PM 48.0°F 28.0°F 46% 30.21 in 10.0 miles WSW 8.1 mph - N/A   Partly Cloudy
1:53 PM 46.0°F 28.9°F 51% 30.22 in 10.0 miles WSW 6.9 mph - N/A   Clear
2:53 PM 46.0°F 27.0°F 47% 30.23 in 10.0 miles West 5.8 mph - N/A   Clear
3:53 PM 44.1°F 26.1°F 49% 30.25 in 10.0 miles WSW 9.2 mph - N/A   Clear
4:53 PM 42.1°F 26.1°F 53% 30.25 in 10.0 miles WSW 6.9 mph - N/A   Clear
5:53 PM 39.9°F 25.0°F 55% 30.27 in 10.0 miles West 3.5 mph - N/A   Clear
6:53 PM 34.0°F 26.1°F 73% 30.29 in 10.0 miles Calm Calm - N/A   Clear
7:53 PM 33.1°F 25.0°F 72% 30.31 in 10.0 miles Calm Calm - N/A   Clear
8:53 PM 30.9°F 25.0°F 79% 30.33 in 10.0 miles Calm Calm - N/A   Clear
9:53 PM 30.0°F 25.0°F 82% 30.34 in 10.0 miles Calm Calm - N/A   Clear
10:53 PM 28.9°F 24.1°F 82% 30.36 in 10.0 miles Calm Calm - N/A   Clear
11:53 PM 27.0°F 23.0°F 85% 30.38 in 10.0 miles Calm Calm - N/A   Clear
Moon Phase
Feb. 13 Feb. 17 Feb. 25 Mar. 04 Mar. 11
Sunrise:06:57 AM (PST) Moon Rise:08:09 AM (PST)2/13
Sunset:05:09 PM (PST) Moon Set:09:40 PM (PST)2/13

Copyright © 2014 The Weather Underground, Inc.